Location: Anna District 4 Election Precinct
(37.4833°N, 89.2195°W)
Time: 13:46:59
(UTC+00:00)

Cosmos 1400 Rocket - Pass Details

Date: 29 October 2020
Orbit: 521 x 568 km, 81.2° (Epoch: 03 December)

Event Time Altitude Azimuth Distance (km) Brightness Sun altitude
Rises 23:26:20 0° 180° (S) 2,751 6.6 -5.6°
Reaches altitude 10° 23:28:32 10° 177° (S) 1,856 5.7 -6.0°
Maximum altitude 23:32:35 64° 96° (E) 628 2.9 -6.8°
Drops below altitude 10° 23:36:38 10° 15° (NNE) 1,853 5.2 -7.6°
Sets 23:38:49 0° 13° (NNE) 2,745 6.1 -8.0°
